Terminal Aerodrome Forecast
Issued by NWS Charleston, WV

Current Version | Previous Version | Graphics & Text | Print | Product List | Glossary On
Versions: 1 2 3 4 5 6 7 8 9 10 11 12 13 14 15 16 17 18 19 20 21 22 23 24
781
FTUS41 KRLX 251120
TAFPKB
TAF
KPKB 251120Z 2512/2612 20004KT P6SM OVC090=

USA.gov is the U.S. government's official web portal to all federal, state and local government web resources and services.